Flag Weather past 2 weeks in Southend-on-Sea, England, United Kingdom

Now
63 °F

Clear.


Feels Like: 63 °F
Forecast: N/A
Wind: 12 mph from South

Location: Southend Airport-On-Sea

Current Time: Oct 31, 2014 at 10:18:53 PM

Latest Report: Oct 31, 2014 at 9:50 PM


Visibility: 10 mi

Pressure: 29.98 "Hg

Humidity: 73%

Dew point: 54 °F

Location of Southend-on-SeaLocation

Historic Weather in Southend-on-Sea — Graph

°F

Southend-on-Sea temperature yesterday

Maximum temperature yesterday: 66 °F (at 1:20 PM)
Minimum temperature yesterday: 55 °F (at 8:50 PM)
Average temperature yesterday: 60 °F

Past Weeks' High & Low Weather Summary

 TemperatureHumidityPressure
High72 °F (Oct 31, 1:20 PM)100% (Oct 27, 11:20 PM)30.24 "Hg (Oct 27, 11:20 PM)
Low45 °F (Oct 22, 2:50 AM)51% (Oct 21, 1:20 PM)29.53 "Hg (Oct 21, 7:50 AM)
Average58 °F79%29.99 "Hg
* Reported Oct 16 9:20 PM — Oct 31 8:50 PM, Southend-on-Sea, Weather by CustomWeather, © 2014

Note: Actual official high and low records may vary slightly from our data, if they occured in-between our weather recording intervals... More about our weather records

Advertising

Southend-on-Sea weather history for previous 24 hours

 ConditionsComfort  
Time TempWeatherWind HumidityBarometerVisibility
8:50 PM
Oct 31
63 °FClear.15 mph68%29.98 "Hg10 mi
7:20 PM63 °FClear.13 mph68%29.98 "Hg10 mi
6:50 PM66 °FClear.13 mph60%29.98 "Hg10 mi
6:20 PM66 °FClear.12 mph56%30.01 "Hg10 mi
5:50 PM64 °FClear.10 mph60%30.01 "Hg10 mi
5:20 PM64 °FClear.15 mph60%30.01 "Hg10 mi
4:50 PM63 °FClear.13 mph68%30.01 "Hg10 mi
4:20 PM64 °FSunny.15 mph68%30.01 "Hg10 mi
3:50 PM66 °FSunny.14 mph64%30.01 "Hg10 mi
3:20 PM68 °FSunny.12 mph64%30.01 "Hg10 mi
2:50 PM68 °FSunny.10 mph64%30.01 "Hg10 mi
2:20 PM70 °FSunny.14 mph60%30.01 "Hg10 mi
1:20 PM72 °FSunny.7 mph61%30.04 "Hg10 mi
12:50 PM70 °FSunny.9 mph64%30.04 "Hg10 mi
12:20 PM68 °FSunny.12 mph64%30.04 "Hg10 mi
11:50 AM68 °FSunny.12 mph69%30.07 "Hg10 mi
11:20 AM68 °FSunny.12 mph69%30.07 "Hg10 mi
10:50 AM66 °FSunny.8 mph73%30.07 "Hg10 mi
10:20 AM64 °FSunny.10 mph78%30.07 "Hg10 mi
9:50 AM63 °FSunny.9 mph83%30.07 "Hg10 mi
9:20 AM63 °FSunny.8 mph77%30.07 "Hg10 mi
8:50 AM61 °FSunny.6 mph83%30.07 "Hg10 mi
8:20 AM59 °FSunny.8 mph88%30.07 "Hg10 mi
7:50 AM59 °FSunny.9 mph88%30.07 "Hg10 mi
7:20 AM57 °FSunny.8 mph88%30.07 "Hg10 mi
6:50 AM59 °FSunny.8 mph88%30.07 "Hg10 mi
6:20 AM59 °FClear.9 mph88%30.07 "Hg10 mi
5:50 AM59 °FClear.8 mph88%30.07 "Hg10 mi
5:20 AM57 °FClear.7 mph88%30.07 "Hg10 mi
3:50 AM57 °FClear.7 mph88%30.07 "Hg10 mi
2:50 AM57 °FClear.5 mph88%30.07 "Hg10 mi
1:50 AM54 °FClear.2 mph94%30.07 "Hg10 mi
12:50 AM57 °FClear.2 mph82%30.07 "Hg10 mi
11:50 PM
Oct 30
57 °FClear.9 mph82%30.07 "Hg10 mi
11:20 PM57 °FClear.5 mph82%30.09 "Hg10 mi
10:50 PM57 °FClear.5 mph88%30.09 "Hg10 mi
10:20 PM55 °FClear.3 mph88%30.09 "Hg10 mi
Weather by CustomWeather, © 2014

See weather overviewHow to use our weather pages